owner,sensor,date,latitude,longitude,vertical_datum,direction_of_sea_water_velocity,sea_water_speed,upward_sea_water_velocity,qcFlag 
TABS,ioos:station:wmo:42043:1,2002-11-01T00:00:00Z,28.9818,-94.9186,2.0,218.7660673,47.86421732,-99999.0,'11111222,11111222,99999999' 
TABS,ioos:station:wmo:42043:1,2002-11-01T01:00:00Z,28.9818,-94.9186,2.0,217.9211735,39.9947359,-99999.0,'11111222,11111222,99999999' 
TABS,ioos:station:wmo:42043:1,2002-11-01T01:30:00Z,28.9818,-94.9186,2.0,222.87392,38.50725127,-99999.0,'11111222,11111222,99999999' 
TABS,ioos:station:wmo:42043:1,2002-11-01T02:00:00Z,28.9818,-94.9186,2.0,215.5707173,33.96872827,-99999.0,'11111222,11111222,99999999' 
TABS,ioos:station:wmo:42043:1,2002-11-01T02:30:00Z,28.9818,-94.9186,2.0,220.7937786,31.91282031,-99999.0,'11111222,11111222,99999999' 
TABS,ioos:station:wmo:42043:1,2002-11-01T03:00:00Z,28.9818,-94.9186,2.0,219.1566372,29.51951388,-99999.0,'11111222,11111222,99999999' 
TABS,ioos:station:wmo:42043:1,2002-11-01T04:00:00Z,28.9818,-94.9186,2.0,218.4360236,36.43561582,-99999.0,'11111222,11111222,99999999' 
TABS,ioos:station:wmo:42043:1,2002-11-01T04:30:00Z,28.9818,-94.9186,2.0,221.1944417,36.65236691,-99999.0,'11111222,11111222,99999999' 
TABS,ioos:station:wmo:42043:1,2002-11-01T05:00:00Z,28.9818,-94.9186,2.0,221.3025053,35.96759653,-99999.0,'11111222,11111222,99999999' 
TABS,ioos:station:wmo:42043:1,2002-11-01T05:30:00Z,28.9818,-94.9186,2.0,215.7596901,33.55629598,-99999.0,'11111222,11111222,99999999' 
TABS,ioos:station:wmo:42043:1,2002-11-01T06:00:00Z,28.9818,-94.9186,2.0,222.225924,34.92249275,-99999.0,'11111222,11111222,99999999' 
TABS,ioos:station:wmo:42043:1,2002-11-01T06:30:00Z,28.9818,-94.9186,2.0,222.5083342,39.04091187,-99999.0,'11111222,11111222,99999999' 
TABS,ioos:station:wmo:42043:1,2002-11-01T07:00:00Z,28.9818,-94.9186,2.0,221.0842837,46.80658073,-99999.0,'11111222,11111222,99999999' 
TABS,ioos:station:wmo:42043:1,2002-11-01T07:30:00Z,28.9818,-94.9186,2.0,219.3902699,47.02149721,-99999.0,'11111222,11111222,99999999' 
TABS,ioos:station:wmo:42043:1,2002-11-01T08:00:00Z,28.9818,-94.9186,2.0,218.1475329,51.38478082,-99999.0,'11111222,11111222,99999999' 
TABS,ioos:station:wmo:42043:1,2002-11-01T08:30:00Z,28.9818,-94.9186,2.0,216.6746931,45.85826534,-99999.0,'11111222,11111222,99999999' 
TABS,ioos:station:wmo:42043:1,2002-11-01T09:00:00Z,28.9818,-94.9186,2.0,214.9165955,49.35466949,-99999.0,'11111222,11111222,99999999' 
TABS,ioos:station:wmo:42043:1,2002-11-01T10:00:00Z,28.9818,-94.9186,2.0,220.6205352,57.23059671,-99999.0,'11111222,11111222,99999999' 
TABS,ioos:station:wmo:42043:1,2002-11-01T10:30:00Z,28.9818,-94.9186,2.0,222.4949609,62.61756064,-99999.0,'11111222,11111222,99999999' 
TABS,ioos:station:wmo:42043:1,2002-11-01T11:00:00Z,28.9818,-94.9186,2.0,220.1407393,69.53930184,-99999.0,'11111222,11111222,99999999' 
TABS,ioos:station:wmo:42043:1,2002-11-01T11:30:00Z,28.9818,-94.9186,2.0,215.9042725,65.17324988,-99999.0,'11111222,11111222,99999999' 
TABS,ioos:station:wmo:42043:1,2002-11-01T12:00:00Z,28.9818,-94.9186,2.0,218.6409441,57.84364096,-99999.0,'11111222,11111222,99999999' 
TABS,ioos:station:wmo:42043:1,2002-11-01T12:30:00Z,28.9818,-94.9186,2.0,216.1867467,54.87589726,-99999.0,'11111222,11111222,99999999' 
TABS,ioos:station:wmo:42043:1,2002-11-01T13:00:00Z,28.9818,-94.9186,2.0,217.0247351,53.92219766,-99999.0,'11111222,11111222,99999999' 
TABS,ioos:station:wmo:42043:1,2002-11-01T13:30:00Z,28.9818,-94.9186,2.0,216.2247405,58.81972543,-99999.0,'11111222,11111222,99999999' 
TABS,ioos:station:wmo:42043:1,2002-11-01T14:00:00Z,28.9818,-94.9186,2.0,219.3776052,54.20592311,-99999.0,'11111222,11111222,99999999' 
TABS,ioos:station:wmo:42043:1,2002-11-01T14:30:00Z,28.9818,-94.9186,2.0,218.3050306,51.49616005,-99999.0,'11111222,11111222,99999999' 
TABS,ioos:station:wmo:42043:1,2002-11-01T15:00:00Z,28.9818,-94.9186,2.0,217.8252781,56.95792307,-99999.0,'11111222,11111222,99999999' 
TABS,ioos:station:wmo:42043:1,2002-11-01T16:00:00Z,28.9818,-94.9186,2.0,215.6122087,53.40886069,-99999.0,'11111222,11111222,99999999' 
TABS,ioos:station:wmo:42043:1,2002-11-01T16:30:00Z,28.9818,-94.9186,2.0,218.9462891,46.80273924,-99999.0,'11111222,11111222,99999999' 
TABS,ioos:station:wmo:42043:1,2002-11-01T17:00:00Z,28.9818,-94.9186,2.0,215.0659957,46.7691704,-99999.0,'11111222,11111222,99999999' 
TABS,ioos:station:wmo:42043:1,2002-11-01T17:30:00Z,28.9818,-94.9186,2.0,219.6654072,40.38807373,-99999.0,'11111222,11111222,99999999' 
TABS,ioos:station:wmo:42043:1,2002-11-01T18:00:00Z,28.9818,-94.9186,2.0,219.8387862,41.58382498,-99999.0,'11111222,11111222,99999999' 
TABS,ioos:station:wmo:42043:1,2002-11-01T18:30:00Z,28.9818,-94.9186,2.0,221.0079198,43.67787999,-99999.0,'11111222,11111222,99999999' 
TABS,ioos:station:wmo:42043:1,2002-11-01T19:00:00Z,28.9818,-94.9186,2.0,222.6106387,54.28227151,-99999.0,'11111222,11111222,99999999' 
TABS,ioos:station:wmo:42043:1,2002-11-01T19:30:00Z,28.9818,-94.9186,2.0,222.1437657,49.9555002,-99999.0,'11111222,11111222,99999999' 
TABS,ioos:station:wmo:42043:1,2002-11-01T20:00:00Z,28.9818,-94.9186,2.0,222.8711925,56.73496629,-99999.0,'11111222,11111222,99999999' 
TABS,ioos:station:wmo:42043:1,2002-11-01T20:30:00Z,28.9818,-94.9186,2.0,219.9510502,49.81803087,-99999.0,'11111222,11111222,99999999' 
TABS,ioos:station:wmo:42043:1,2002-11-01T21:00:00Z,28.9818,-94.9186,2.0,220.4397449,52.03097635,-99999.0,'11111222,11111222,99999999' 
TABS,ioos:station:wmo:42043:1,2002-11-01T21:30:00Z,28.9818,-94.9186,2.0,218.1049245,52.60022528,-99999.0,'11111222,11111222,99999999' 
TABS,ioos:station:wmo:42043:1,2002-11-01T22:00:00Z,28.9818,-94.9186,2.0,219.1431145,54.39882076,-99999.0,'11111222,11111222,99999999' 
TABS,ioos:station:wmo:42043:1,2002-11-01T22:30:00Z,28.9818,-94.9186,2.0,217.8686558,50.01160265,-99999.0,'11111222,11111222,99999999' 
TABS,ioos:station:wmo:42043:1,2002-11-01T23:00:00Z,28.9818,-94.9186,2.0,217.5933973,52.88021936,-99999.0,'11111222,11111222,99999999' 
TABS,ioos:station:wmo:42043:1,2002-11-01T23:30:00Z,28.9818,-94.9186,2.0,217.2778766,51.36330402,-99999.0,'11111222,11111222,99999999' 
TABS,ioos:station:wmo:42043:1,2002-11-02T00:00:00Z,28.9818,-94.9186,2.0,212.8194556,42.36179411,-99999.0,'11111222,11111222,99999999' 
TABS,ioos:station:wmo:42043:1,2002-11-02T00:30:00Z,28.9818,-94.9186,2.0,215.5892355,47.52786656,-99999.0,'11111222,11111222,99999999' 
TABS,ioos:station:wmo:42043:1,2002-11-02T01:00:00Z,28.9818,-94.9186,2.0,212.6433156,43.58451675,-99999.0,'11111222,11111222,99999999' 
TABS,ioos:station:wmo:42043:1,2002-11-02T01:30:00Z,28.9818,-94.9186,2.0,212.9747308,39.33685422,-99999.0,'11111222,11111222,99999999' 
TABS,ioos:station:wmo:42043:1,2002-11-02T02:00:00Z,28.9818,-94.9186,2.0,216.6412239,46.16236671,-99999.0,'11111222,11111222,99999999' 
TABS,ioos:station:wmo:42043:1,2002-11-02T02:30:00Z,28.9818,-94.9186,2.0,213.7680649,46.6863856,-99999.0,'11111222,11111222,99999999' 
TABS,ioos:station:wmo:42043:1,2002-11-02T03:00:00Z,28.9818,-94.9186,2.0,201.3728855,36.76870408,-99999.0,'11111222,11111222,99999999' 
TABS,ioos:station:wmo:42043:1,2002-11-02T03:30:00Z,28.9818,-94.9186,2.0,207.9132501,25.65480462,-99999.0,'11111222,11111222,99999999' 
TABS,ioos:station:wmo:42043:1,2002-11-02T04:00:00Z,28.9818,-94.9186,2.0,208.8906644,23.80242845,-99999.0,'11111222,11111222,99999999' 
TABS,ioos:station:wmo:42043:1,2002-11-02T04:30:00Z,28.9818,-94.9186,2.0,212.7930501,20.73445924,-99999.0,'11111222,11111222,99999999' 
TABS,ioos:station:wmo:42043:1,2002-11-02T05:00:00Z,28.9818,-94.9186,2.0,217.2172809,25.37846725,-99999.0,'11111222,11111222,99999999' 
TABS,ioos:station:wmo:42043:1,2002-11-02T05:30:00Z,28.9818,-94.9186,2.0,207.9429421,23.98653164,-99999.0,'11111222,11111222,99999999' 
TABS,ioos:station:wmo:42043:1,2002-11-02T06:00:00Z,28.9818,-94.9186,2.0,218.5610415,30.89746268,-99999.0,'11111222,11111222,99999999' 
TABS,ioos:station:wmo:42043:1,2002-11-02T06:30:00Z,28.9818,-94.9186,2.0,213.6714992,34.77415707,-99999.0,'11111222,11111222,99999999' 
TABS,ioos:station:wmo:42043:1,2002-11-02T07:00:00Z,28.9818,-94.9186,2.0,213.5109072,36.42456589,-99999.0,'11111222,11111222,99999999' 
TABS,ioos:station:wmo:42043:1,2002-11-02T07:30:00Z,28.9818,-94.9186,2.0,206.7655887,35.72811358,-99999.0,'11111222,11111222,99999999' 
TABS,ioos:station:wmo:42043:1,2002-11-02T08:00:00Z,28.9818,-94.9186,2.0,214.3527898,42.90338565,-99999.0,'11111222,11111222,99999999' 
TABS,ioos:station:wmo:42043:1,2002-11-02T08:30:00Z,28.9818,-94.9186,2.0,213.5649786,38.19951963,-99999.0,'11111222,11111222,99999999' 
TABS,ioos:station:wmo:42043:1,2002-11-02T09:00:00Z,28.9818,-94.9186,2.0,213.0479771,41.3499468,-99999.0,'11111222,11111222,99999999' 
TABS,ioos:station:wmo:42043:1,2002-11-02T09:30:00Z,28.9818,-94.9186,2.0,210.1826273,39.26310227,-99999.0,'11111222,11111222,99999999' 
TABS,ioos:station:wmo:42043:1,2002-11-02T10:00:00Z,28.9818,-94.9186,2.0,215.5038708,37.76072695,-99999.0,'11111222,11111222,99999999' 
TABS,ioos:station:wmo:42043:1,2002-11-02T10:30:00Z,28.9818,-94.9186,2.0,216.4212874,31.95097808,-99999.0,'11111222,11111222,99999999' 
TABS,ioos:station:wmo:42043:1,2002-11-02T11:00:00Z,28.9818,-94.9186,2.0,219.5660532,31.58697358,-99999.0,'11111222,11111222,99999999' 
TABS,ioos:station:wmo:42043:1,2002-11-02T11:30:00Z,28.9818,-94.9186,2.0,212.6397793,29.66480069,-99999.0,'11111222,11111222,99999999' 
TABS,ioos:station:wmo:42043:1,2002-11-02T12:00:00Z,28.9818,-94.9186,2.0,210.5711221,25.79570701,-99999.0,'11111222,11111222,99999999' 
TABS,ioos:station:wmo:42043:1,2002-11-02T12:30:00Z,28.9818,-94.9186,2.0,214.0722712,24.09671347,-99999.0,'11111222,11111222,99999999' 
TABS,ioos:station:wmo:42043:1,2002-11-02T13:00:00Z,28.9818,-94.9186,2.0,209.5608243,29.77593156,-99999.0,'11111222,11111222,99999999' 
TABS,ioos:station:wmo:42043:1,2002-11-02T13:30:00Z,28.9818,-94.9186,2.0,224.7272392,29.74124745,-99999.0,'11111222,11111222,99999999' 
TABS,ioos:station:wmo:42043:1,2002-11-02T14:00:00Z,28.9818,-94.9186,2.0,227.3369847,29.12874869,-99999.0,'11111222,11111222,99999999' 
TABS,ioos:station:wmo:42043:1,2002-11-02T14:30:00Z,28.9818,-94.9186,2.0,221.7300752,26.5314078,-99999.0,'11111222,11111222,99999999' 
TABS,ioos:station:wmo:42043:1,2002-11-02T15:00:00Z,28.9818,-94.9186,2.0,221.0131396,21.56236072,-99999.0,'11111222,11111222,99999999' 
TABS,ioos:station:wmo:42043:1,2002-11-02T15:30:00Z,28.9818,-94.9186,2.0,224.1963768,25.21790634,-99999.0,'11111222,11111222,99999999' 
TABS,ioos:station:wmo:42043:1,2002-11-02T16:00:00Z,28.9818,-94.9186,2.0,216.4097881,26.41685068,-99999.0,'11111222,11111222,99999999' 
TABS,ioos:station:wmo:42043:1,2002-11-02T16:30:00Z,28.9818,-94.9186,2.0,225.0511937,23.59616282,-99999.0,'11111222,11111222,99999999' 
TABS,ioos:station:wmo:42043:1,2002-11-02T17:00:00Z,28.9818,-94.9186,2.0,217.9256669,23.65601826,-99999.0,'11111222,11111222,99999999' 
TABS,ioos:station:wmo:42043:1,2002-11-02T17:30:00Z,28.9818,-94.9186,2.0,223.388669,22.63636455,-99999.0,'11111222,11111222,99999999' 
TABS,ioos:station:wmo:42043:1,2002-11-02T18:00:00Z,28.9818,-94.9186,2.0,217.8392513,24.1094525,-99999.0,'11111222,11111222,99999999' 
TABS,ioos:station:wmo:42043:1,2002-11-02T18:30:00Z,28.9818,-94.9186,2.0,222.0540973,20.91556836,-99999.0,'11111222,11111222,99999999' 
TABS,ioos:station:wmo:42043:1,2002-11-02T19:00:00Z,28.9818,-94.9186,2.0,219.6756815,23.77650942,-99999.0,'11111222,11111222,99999999' 
TABS,ioos:station:wmo:42043:1,2002-11-02T19:30:00Z,28.9818,-94.9186,2.0,218.6241113,25.27985166,-99999.0,'11111222,11111222,99999999' 
TABS,ioos:station:wmo:42043:1,2002-11-02T20:00:00Z,28.9818,-94.9186,2.0,221.6137148,26.81787837,-99999.0,'11111222,11111222,99999999' 
TABS,ioos:station:wmo:42043:1,2002-11-02T20:30:00Z,28.9818,-94.9186,2.0,219.8397271,27.6751766,-99999.0,'11111222,11111222,99999999' 
TABS,ioos:station:wmo:42043:1,2002-11-02T21:00:00Z,28.9818,-94.9186,2.0,216.1763261,29.91819012,-99999.0,'11111222,11111222,99999999' 
TABS,ioos:station:wmo:42043:1,2002-11-02T21:30:00Z,28.9818,-94.9186,2.0,218.633736,31.24881118,-99999.0,'11111222,11111222,99999999' 
TABS,ioos:station:wmo:42043:1,2002-11-02T22:00:00Z,28.9818,-94.9186,2.0,215.0012081,34.6584261,-99999.0,'11111222,11111222,99999999' 
TABS,ioos:station:wmo:42043:1,2002-11-02T22:30:00Z,28.9818,-94.9186,2.0,217.7492816,36.86634509,-99999.0,'11111222,11111222,99999999' 
TABS,ioos:station:wmo:42043:1,2002-11-02T23:00:00Z,28.9818,-94.9186,2.0,213.7074867,35.89465141,-99999.0,'11111222,11111222,99999999' 
TABS,ioos:station:wmo:42043:1,2002-11-02T23:30:00Z,28.9818,-94.9186,2.0,211.1843333,36.03726543,-99999.0,'11111222,11111222,99999999' 
TABS,ioos:station:wmo:42043:1,2002-11-03T00:00:00Z,28.9818,-94.9186,2.0,219.0663801,40.90606312,-99999.0,'11111222,11111222,99999999' 
TABS,ioos:station:wmo:42043:1,2002-11-03T00:30:00Z,28.9818,-94.9186,2.0,213.5461041,36.49938767,-99999.0,'11111222,11111222,99999999' 
TABS,ioos:station:wmo:42043:1,2002-11-03T01:00:00Z,28.9818,-94.9186,2.0,216.022915,40.46841855,-99999.0,'11111222,11111222,99999999' 
TABS,ioos:station:wmo:42043:1,2002-11-03T01:30:00Z,28.9818,-94.9186,2.0,217.0084805,44.55613089,-99999.0,'11111222,11111222,99999999' 
TABS,ioos:station:wmo:42043:1,2002-11-03T02:00:00Z,28.9818,-94.9186,2.0,222.6793086,38.07356301,-99999.0,'11111222,11111222,99999999' 
TABS,ioos:station:wmo:42043:1,2002-11-03T02:30:00Z,28.9818,-94.9186,2.0,217.8398311,41.81199469,-99999.0,'11111222,11111222,99999999' 
TABS,ioos:station:wmo:42043:1,2002-11-03T03:00:00Z,28.9818,-94.9186,2.0,213.3453824,40.6047879,-99999.0,'11111222,11111222,99999999' 
TABS,ioos:station:wmo:42043:1,2002-11-03T03:30:00Z,28.9818,-94.9186,2.0,221.0145095,39.37498825,-99999.0,'11111222,11111222,99999999' 
TABS,ioos:station:wmo:42043:1,2002-11-03T04:00:00Z,28.9818,-94.9186,2.0,219.8015743,39.72600282,-99999.0,'11111222,11111222,99999999' 
TABS,ioos:station:wmo:42043:1,2002-11-03T04:30:00Z,28.9818,-94.9186,2.0,215.1876624,38.09041087,-99999.0,'11111222,11111222,99999999' 
TABS,ioos:station:wmo:42043:1,2002-11-03T05:00:00Z,28.9818,-94.9186,2.0,217.222114,39.65875061,-99999.0,'11111222,11111222,99999999' 
TABS,ioos:station:wmo:42043:1,2002-11-03T05:30:00Z,28.9818,-94.9186,2.0,216.2862119,42.42819935,-99999.0,'11111222,11111222,99999999' 
TABS,ioos:station:wmo:42043:1,2002-11-03T06:00:00Z,28.9818,-94.9186,2.0,216.8048635,38.94202486,-99999.0,'11111222,11111222,99999999' 
TABS,ioos:station:wmo:42043:1,2002-11-03T06:30:00Z,28.9818,-94.9186,2.0,215.4334654,40.37868373,-99999.0,'11111222,11111222,99999999' 
TABS,ioos:station:wmo:42043:1,2002-11-03T07:00:00Z,28.9818,-94.9186,2.0,211.1237642,41.07235688,-99999.0,'11111222,11111222,99999999' 
TABS,ioos:station:wmo:42043:1,2002-11-03T07:30:00Z,28.9818,-94.9186,2.0,216.8774066,44.04200041,-99999.0,'11111222,11111222,99999999' 
TABS,ioos:station:wmo:42043:1,2002-11-03T08:00:00Z,28.9818,-94.9186,2.0,216.3214428,45.3640761,-99999.0,'11111222,11111222,99999999' 
TABS,ioos:station:wmo:42043:1,2002-11-03T08:30:00Z,28.9818,-94.9186,2.0,216.5323051,45.52478885,-99999.0,'11111222,11111222,99999999' 
TABS,ioos:station:wmo:42043:1,2002-11-03T09:00:00Z,28.9818,-94.9186,2.0,218.3633613,48.9486343,-99999.0,'11111222,11111222,99999999' 
TABS,ioos:station:wmo:42043:1,2002-11-03T09:30:00Z,28.9818,-94.9186,2.0,220.1433041,49.69709951,-99999.0,'11111222,11111222,99999999' 
TABS,ioos:station:wmo:42043:1,2002-11-03T10:00:00Z,28.9818,-94.9186,2.0,220.6972968,50.33227593,-99999.0,'11111222,11111222,99999999' 
TABS,ioos:station:wmo:42043:1,2002-11-03T10:30:00Z,28.9818,-94.9186,2.0,219.3558335,52.55947583,-99999.0,'11111222,11111222,99999999' 
TABS,ioos:station:wmo:42043:1,2002-11-03T11:00:00Z,28.9818,-94.9186,2.0,219.8386932,54.86765349,-99999.0,'11111222,11111222,99999999' 
TABS,ioos:station:wmo:42043:1,2002-11-03T11:30:00Z,28.9818,-94.9186,2.0,222.8876868,52.76479603,-99999.0,'11111222,11111222,99999999' 
TABS,ioos:station:wmo:42043:1,2002-11-03T12:00:00Z,28.9818,-94.9186,2.0,223.9134559,51.84731526,-99999.0,'11111222,11111222,99999999' 
TABS,ioos:station:wmo:42043:1,2002-11-03T12:30:00Z,28.9818,-94.9186,2.0,219.196589,50.98204096,-99999.0,'11111222,11111222,99999999' 
TABS,ioos:station:wmo:42043:1,2002-11-03T13:00:00Z,28.9818,-94.9186,2.0,223.8872873,49.53509463,-99999.0,'11111222,11111222,99999999' 
TABS,ioos:station:wmo:42043:1,2002-11-03T13:30:00Z,28.9818,-94.9186,2.0,221.9418114,45.33352402,-99999.0,'11111222,11111222,99999999' 
TABS,ioos:station:wmo:42043:1,2002-11-03T14:00:00Z,28.9818,-94.9186,2.0,216.1986153,37.57257644,-99999.0,'11111222,11111222,99999999' 
TABS,ioos:station:wmo:42043:1,2002-11-03T14:30:00Z,28.9818,-94.9186,2.0,223.047992,39.65633997,-99999.0,'11111222,11111222,99999999' 
TABS,ioos:station:wmo:42043:1,2002-11-03T15:00:00Z,28.9818,-94.9186,2.0,228.6677146,41.33729067,-99999.0,'11111222,11111222,99999999' 
TABS,ioos:station:wmo:42043:1,2002-11-03T15:30:00Z,28.9818,-94.9186,2.0,232.1514139,37.59948138,-99999.0,'11111222,11111222,99999999' 
TABS,ioos:station:wmo:42043:1,2002-11-03T16:00:00Z,28.9818,-94.9186,2.0,222.0255136,35.29681714,-99999.0,'11111222,11111222,99999999' 
TABS,ioos:station:wmo:42043:1,2002-11-03T16:30:00Z,28.9818,-94.9186,2.0,215.0743254,34.66501551,-99999.0,'11111222,11111222,99999999' 
TABS,ioos:station:wmo:42043:1,2002-11-03T17:00:00Z,28.9818,-94.9186,2.0,209.8645606,28.43626558,-99999.0,'11111222,11111222,99999999' 
TABS,ioos:station:wmo:42043:1,2002-11-03T17:30:00Z,28.9818,-94.9186,2.0,214.3492674,25.06024142,-99999.0,'11111222,11111222,99999999' 
TABS,ioos:station:wmo:42043:1,2002-11-03T18:00:00Z,28.9818,-94.9186,2.0,216.7766389,18.49002434,-99999.0,'11111222,11111222,99999999' 
TABS,ioos:station:wmo:42043:1,2002-11-03T18:30:00Z,28.9818,-94.9186,2.0,227.714709,30.75123737,-99999.0,'11111222,11111222,99999999' 
TABS,ioos:station:wmo:42043:1,2002-11-03T19:00:00Z,28.9818,-94.9186,2.0,234.2072177,34.24805542,-99999.0,'11111222,11111222,99999999' 
TABS,ioos:station:wmo:42043:1,2002-11-03T19:30:00Z,28.9818,-94.9186,2.0,224.5797042,43.41045151,-99999.0,'11111222,11111222,99999999' 
TABS,ioos:station:wmo:42043:1,2002-11-03T20:00:00Z,28.9818,-94.9186,2.0,226.1909875,42.51337789,-99999.0,'11111222,11111222,99999999' 
TABS,ioos:station:wmo:42043:1,2002-11-03T20:30:00Z,28.9818,-94.9186,2.0,215.6988683,42.48286831,-99999.0,'11111222,11111222,99999999' 
TABS,ioos:station:wmo:42043:1,2002-11-03T21:00:00Z,28.9818,-94.9186,2.0,217.4056637,44.24993672,-99999.0,'11111222,11111222,99999999' 
TABS,ioos:station:wmo:42043:1,2002-11-03T21:30:00Z,28.9818,-94.9186,2.0,216.4588686,45.75517566,-99999.0,'11111222,11111222,99999999' 
TABS,ioos:station:wmo:42043:1,2002-11-03T22:00:00Z,28.9818,-94.9186,2.0,216.5397595,51.76485777,-99999.0,'11111222,11111222,99999999' 
TABS,ioos:station:wmo:42043:1,2002-11-03T22:30:00Z,28.9818,-94.9186,2.0,216.5615744,53.19876878,-99999.0,'11111222,11111222,99999999' 
TABS,ioos:station:wmo:42043:1,2002-11-03T23:00:00Z,28.9818,-94.9186,2.0,216.966977,50.60207308,-99999.0,'11111222,11111222,99999999' 
TABS,ioos:station:wmo:42043:1,2002-11-03T23:30:00Z,28.9818,-94.9186,2.0,217.7619077,51.24221404,-99999.0,'11111222,11111222,99999999' 
TABS,ioos:station:wmo:42043:1,2002-11-04T00:00:00Z,28.9818,-94.9186,2.0,215.9787784,51.45621925,-99999.0,'11111222,11111222,99999999' 
TABS,ioos:station:wmo:42043:1,2002-11-04T00:30:00Z,28.9818,-94.9186,2.0,220.0579376,47.0348052,-99999.0,'11111222,11111222,99999999' 
TABS,ioos:station:wmo:42043:1,2002-11-04T01:00:00Z,28.9818,-94.9186,2.0,214.750937,47.17424827,-99999.0,'11111222,11111222,99999999' 
TABS,ioos:station:wmo:42043:1,2002-11-04T01:30:00Z,28.9818,-94.9186,2.0,219.7335968,42.98969644,-99999.0,'11111222,11111222,99999999' 
TABS,ioos:station:wmo:42043:1,2002-11-04T02:00:00Z,28.9818,-94.9186,2.0,216.5661847,49.85269902,-99999.0,'11111222,11111222,99999999' 
TABS,ioos:station:wmo:42043:1,2002-11-04T02:30:00Z,28.9818,-94.9186,2.0,225.1337762,42.29924349,-99999.0,'11111222,11111222,99999999' 
TABS,ioos:station:wmo:42043:1,2002-11-04T03:00:00Z,28.9818,-94.9186,2.0,225.0502988,32.01780755,-99999.0,'11111222,11111222,99999999' 
TABS,ioos:station:wmo:42043:1,2002-11-04T03:30:00Z,28.9818,-94.9186,2.0,224.8851314,42.44063383,-99999.0,'11111222,11111222,99999999' 
TABS,ioos:station:wmo:42043:1,2002-11-04T04:00:00Z,28.9818,-94.9186,2.0,230.1363153,34.27677056,-99999.0,'11111222,11111222,99999999' 
TABS,ioos:station:wmo:42043:1,2002-11-04T04:30:00Z,28.9818,-94.9186,2.0,224.9912597,48.09033271,-99999.0,'11111222,11111222,99999999' 
TABS,ioos:station:wmo:42043:1,2002-11-04T05:00:00Z,28.9818,-94.9186,2.0,233.6029154,68.54033703,-99999.0,'11111222,11111222,99999999' 
TABS,ioos:station:wmo:42043:1,2002-11-04T05:30:00Z,28.9818,-94.9186,2.0,233.9420319,73.78541455,-99999.0,'11111222,11111222,99999999' 
TABS,ioos:station:wmo:42043:1,2002-11-04T06:00:00Z,28.9818,-94.9186,2.0,233.0255356,71.46011825,-99999.0,'11111222,11111222,99999999' 
TABS,ioos:station:wmo:42043:1,2002-11-04T06:30:00Z,28.9818,-94.9186,2.0,231.3531406,74.12163112,-99999.0,'11111222,11111222,99999999' 
TABS,ioos:station:wmo:42043:1,2002-11-04T07:00:00Z,28.9818,-94.9186,2.0,231.1321668,72.81024791,-99999.0,'11111222,11111222,99999999' 
TABS,ioos:station:wmo:42043:1,2002-11-04T07:30:00Z,28.9818,-94.9186,2.0,231.0068828,70.94469113,-99999.0,'11111222,11111222,99999999' 
TABS,ioos:station:wmo:42043:1,2002-11-04T08:00:00Z,28.9818,-94.9186,2.0,232.1216819,66.9563634,-99999.0,'11111222,11111222,99999999' 
TABS,ioos:station:wmo:42043:1,2002-11-04T08:30:00Z,28.9818,-94.9186,2.0,235.2951886,66.11121009,-99999.0,'11111222,11111222,99999999' 
TABS,ioos:station:wmo:42043:1,2002-11-04T09:00:00Z,28.9818,-94.9186,2.0,232.7437998,66.8015157,-99999.0,'11111222,11111222,99999999' 
TABS,ioos:station:wmo:42043:1,2002-11-04T09:30:00Z,28.9818,-94.9186,2.0,232.816614,66.59899474,-99999.0,'11111222,11111222,99999999' 
TABS,ioos:station:wmo:42043:1,2002-11-04T10:00:00Z,28.9818,-94.9186,2.0,232.0712662,69.61387936,-99999.0,'11111222,11111222,99999999' 
TABS,ioos:station:wmo:42043:1,2002-11-04T10:30:00Z,28.9818,-94.9186,2.0,230.4598841,65.69130841,-99999.0,'11111222,11111222,99999999' 
TABS,ioos:station:wmo:42043:1,2002-11-04T11:00:00Z,28.9818,-94.9186,2.0,231.796719,64.04733406,-99999.0,'11111222,11111222,99999999' 
TABS,ioos:station:wmo:42043:1,2002-11-04T11:30:00Z,28.9818,-94.9186,2.0,228.7577738,64.51372722,-99999.0,'11111222,11111222,99999999' 
TABS,ioos:station:wmo:42043:1,2002-11-04T12:00:00Z,28.9818,-94.9186,2.0,231.4567054,59.73346466,-99999.0,'11111222,11111222,99999999' 
TABS,ioos:station:wmo:42043:1,2002-11-04T12:30:00Z,28.9818,-94.9186,2.0,232.4158012,64.04097204,-99999.0,'11111222,11111222,99999999' 
TABS,ioos:station:wmo:42043:1,2002-11-04T13:00:00Z,28.9818,-94.9186,2.0,231.3469628,63.00049603,-99999.0,'11111222,11111222,99999999' 
TABS,ioos:station:wmo:42043:1,2002-11-04T13:30:00Z,28.9818,-94.9186,2.0,227.6751047,55.29238013,-99999.0,'11111222,11111222,99999999' 
TABS,ioos:station:wmo:42043:1,2002-11-04T14:00:00Z,28.9818,-94.9186,2.0,228.0610596,55.21190904,-99999.0,'11111222,11111222,99999999' 
TABS,ioos:station:wmo:42043:1,2002-11-04T14:30:00Z,28.9818,-94.9186,2.0,224.4226041,54.76112672,-99999.0,'11111222,11111222,99999999' 
TABS,ioos:station:wmo:42043:1,2002-11-04T15:00:00Z,28.9818,-94.9186,2.0,225.7822612,54.36036884,-99999.0,'11111222,11111222,99999999' 
TABS,ioos:station:wmo:42043:1,2002-11-04T15:30:00Z,28.9818,-94.9186,2.0,226.8207081,47.17370454,-99999.0,'11111222,11111222,99999999' 
TABS,ioos:station:wmo:42043:1,2002-11-04T16:00:00Z,28.9818,-94.9186,2.0,219.7107935,38.04877133,-99999.0,'11111222,11111222,99999999' 
TABS,ioos:station:wmo:42043:1,2002-11-04T16:30:00Z,28.9818,-94.9186,2.0,219.7403045,40.65301588,-99999.0,'11111222,11111222,99999999' 
TABS,ioos:station:wmo:42043:1,2002-11-04T17:00:00Z,28.9818,-94.9186,2.0,215.5521094,31.66237041,-99999.0,'11111222,11111222,99999999' 
TABS,ioos:station:wmo:42043:1,2002-11-04T17:30:00Z,28.9818,-94.9186,2.0,218.3377831,28.64740477,-99999.0,'11111222,11111222,99999999' 
TABS,ioos:station:wmo:42043:1,2002-11-04T18:00:00Z,28.9818,-94.9186,2.0,220.6981792,29.41364309,-99999.0,'11111222,11111222,99999999' 